Year,Month,Day,Hour,Minute,Value (Times are PST for temperature in C)
2017,07,18,00,00,15.00
2017,07,18,00,01,14.90
2017,07,18,00,02,14.90
2017,07,18,00,03,14.90
2017,07,18,00,04,14.80
2017,07,18,00,05,14.80
2017,07,18,00,06,14.80
2017,07,18,00,07,14.80
2017,07,18,00,08,14.70
2017,07,18,00,09,14.70
2017,07,18,00,10,14.70
2017,07,18,00,11,14.70
2017,07,18,00,12,14.70
2017,07,18,00,13,14.60
2017,07,18,00,14,14.60
2017,07,18,00,15,14.60
2017,07,18,00,16,14.60
2017,07,18,00,17,14.50
2017,07,18,00,18,14.50
2017,07,18,00,19,14.50
2017,07,18,00,20,14.40
2017,07,18,00,21,14.40
2017,07,18,00,22,14.40
2017,07,18,00,23,14.40
2017,07,18,00,24,14.40
2017,07,18,00,25,14.40
2017,07,18,00,26,14.30
2017,07,18,00,27,14.30
2017,07,18,00,28,14.30
2017,07,18,00,29,14.30
2017,07,18,00,30,14.30
2017,07,18,00,31,14.30
2017,07,18,00,32,14.30
2017,07,18,00,33,14.30
2017,07,18,00,34,14.30
2017,07,18,00,35,14.30
2017,07,18,00,36,14.30
2017,07,18,00,37,14.30
2017,07,18,00,38,14.30
2017,07,18,00,39,14.30
2017,07,18,00,40,14.30
2017,07,18,00,41,14.30
2017,07,18,00,42,14.20
2017,07,18,00,43,14.20
2017,07,18,00,44,14.20
2017,07,18,00,45,14.20
2017,07,18,00,46,14.20
2017,07,18,00,47,14.20
2017,07,18,00,48,14.20
2017,07,18,00,49,14.10
2017,07,18,00,50,14.10
2017,07,18,00,51,14.10
2017,07,18,00,52,14.00
2017,07,18,00,53,14.00
2017,07,18,00,54,14.00
2017,07,18,00,55,13.90
2017,07,18,00,56,13.90
2017,07,18,00,57,13.90
2017,07,18,00,58,13.90
2017,07,18,00,59,13.90
2017,07,18,01,00,13.80
2017,07,18,01,01,13.80
2017,07,18,01,02,13.80
2017,07,18,01,03,13.80
2017,07,18,01,04,13.80
2017,07,18,01,05,13.70
2017,07,18,01,06,13.70
2017,07,18,01,07,13.70
2017,07,18,01,08,13.70
2017,07,18,01,09,13.70
2017,07,18,01,10,13.60
2017,07,18,01,11,13.60
2017,07,18,01,12,13.60
2017,07,18,01,13,13.60
2017,07,18,01,14,13.50
2017,07,18,01,15,13.50
2017,07,18,01,16,13.50
2017,07,18,01,17,13.40
2017,07,18,01,18,13.40
2017,07,18,01,19,13.40
2017,07,18,01,20,13.40
2017,07,18,01,21,13.30
2017,07,18,01,22,13.30
2017,07,18,01,23,13.30
2017,07,18,01,24,13.30
2017,07,18,01,25,13.30
2017,07,18,01,26,13.20
2017,07,18,01,27,13.20
2017,07,18,01,28,13.20
2017,07,18,01,29,13.20
2017,07,18,01,30,13.20
2017,07,18,01,31,13.20
2017,07,18,01,32,13.10
2017,07,18,01,33,13.10
2017,07,18,01,34,13.10
2017,07,18,01,35,13.10
2017,07,18,01,36,13.10
2017,07,18,01,37,13.00
2017,07,18,01,38,13.00
2017,07,18,01,39,13.00
2017,07,18,01,40,12.90
2017,07,18,01,41,12.90
2017,07,18,01,42,12.90
2017,07,18,01,43,12.90
2017,07,18,01,44,12.80
2017,07,18,01,45,12.80
2017,07,18,01,46,12.80
2017,07,18,01,47,12.80
2017,07,18,01,48,12.80
2017,07,18,01,49,12.80
2017,07,18,01,50,12.70
2017,07,18,01,51,12.70
2017,07,18,01,52,12.70
2017,07,18,01,53,12.70
2017,07,18,01,54,12.70
2017,07,18,01,55,12.70
2017,07,18,01,56,12.70
2017,07,18,01,57,12.60
2017,07,18,01,58,12.60
2017,07,18,01,59,12.60
2017,07,18,02,00,12.60
2017,07,18,02,01,12.50
2017,07,18,02,02,12.50
2017,07,18,02,03,12.50
2017,07,18,02,04,12.40
2017,07,18,02,05,12.40
2017,07,18,02,06,12.40
2017,07,18,02,07,12.40
2017,07,18,02,08,12.40
2017,07,18,02,09,12.30
2017,07,18,02,10,12.30
2017,07,18,02,11,12.30
2017,07,18,02,12,12.30
2017,07,18,02,13,12.30
2017,07,18,02,14,12.30
2017,07,18,02,15,12.30
2017,07,18,02,16,12.30
2017,07,18,02,17,12.30
2017,07,18,02,18,12.30
2017,07,18,02,19,12.20
2017,07,18,02,20,12.20
2017,07,18,02,21,12.20
2017,07,18,02,22,12.20
2017,07,18,02,23,12.10
2017,07,18,02,24,12.10
2017,07,18,02,25,12.10
2017,07,18,02,26,12.10
2017,07,18,02,27,12.10
2017,07,18,02,28,12.10
2017,07,18,02,29,12.10
2017,07,18,02,30,12.10
2017,07,18,02,31,12.10
2017,07,18,02,32,12.10
2017,07,18,02,33,12.10
2017,07,18,02,34,12.00
2017,07,18,02,35,12.00
2017,07,18,02,36,12.00
2017,07,18,02,37,12.00
2017,07,18,02,38,12.00
2017,07,18,02,39,11.90
2017,07,18,02,40,11.90
2017,07,18,02,41,11.90
2017,07,18,02,42,11.90
2017,07,18,02,43,11.90
2017,07,18,02,44,11.80
2017,07,18,02,45,11.80
2017,07,18,02,46,11.80
2017,07,18,02,47,11.80
2017,07,18,02,48,11.80
2017,07,18,02,49,11.80
2017,07,18,02,50,11.80
2017,07,18,02,51,11.80
2017,07,18,02,52,11.70
2017,07,18,02,53,11.70
2017,07,18,02,54,11.70
2017,07,18,02,55,11.70
2017,07,18,02,56,11.70
2017,07,18,02,57,11.70
2017,07,18,02,58,11.60
2017,07,18,02,59,11.60
2017,07,18,03,00,11.60
2017,07,18,03,01,11.60
2017,07,18,03,02,11.50
2017,07,18,03,03,11.50
2017,07,18,03,04,11.50
2017,07,18,03,05,11.50
2017,07,18,03,06,11.50
2017,07,18,03,07,11.50
2017,07,18,03,08,11.50
2017,07,18,03,09,11.50
2017,07,18,03,10,11.40
2017,07,18,03,11,11.40
2017,07,18,03,12,11.40
2017,07,18,03,13,11.40
2017,07,18,03,14,11.40
2017,07,18,03,15,11.40
2017,07,18,03,16,11.40
2017,07,18,03,17,11.40
2017,07,18,03,18,11.40
2017,07,18,03,19,11.40
2017,07,18,03,20,11.40
2017,07,18,03,21,11.40
2017,07,18,03,22,11.40
2017,07,18,03,23,11.40
2017,07,18,03,24,11.40
2017,07,18,03,25,11.30
2017,07,18,03,26,11.30
2017,07,18,03,27,11.30
2017,07,18,03,28,11.30
2017,07,18,03,29,11.30
2017,07,18,03,30,11.30
2017,07,18,03,31,11.30
2017,07,18,03,32,11.30
2017,07,18,03,33,11.30
2017,07,18,03,34,11.30
2017,07,18,03,35,11.20
2017,07,18,03,36,11.20
2017,07,18,03,37,11.20
2017,07,18,03,38,11.20
2017,07,18,03,39,11.20
2017,07,18,03,40,11.20
2017,07,18,03,41,11.20
2017,07,18,03,42,11.10
2017,07,18,03,43,11.10
2017,07,18,03,44,11.10
2017,07,18,03,45,11.10
2017,07,18,03,46,11.10
2017,07,18,03,47,11.10
2017,07,18,03,48,11.10
2017,07,18,03,49,11.10
2017,07,18,03,50,11.10
2017,07,18,03,51,11.00
2017,07,18,03,52,11.00
2017,07,18,03,53,11.00
2017,07,18,03,54,11.00
2017,07,18,03,55,10.90
2017,07,18,03,56,10.90
2017,07,18,03,57,10.90
2017,07,18,03,58,10.90
2017,07,18,03,59,10.90
2017,07,18,04,00,10.90
2017,07,18,04,01,10.80
2017,07,18,04,02,10.80
2017,07,18,04,03,10.80
2017,07,18,04,04,10.80
2017,07,18,04,05,10.80
2017,07,18,04,06,10.80
2017,07,18,04,07,10.80
2017,07,18,04,08,10.80
2017,07,18,04,09,10.70
2017,07,18,04,10,10.70
2017,07,18,04,11,10.70
2017,07,18,04,12,10.70
2017,07,18,04,13,10.70
2017,07,18,04,14,10.70
2017,07,18,04,15,10.70
2017,07,18,04,16,10.70
2017,07,18,04,17,10.70
2017,07,18,04,18,10.70
2017,07,18,04,19,10.70
2017,07,18,04,20,10.70
2017,07,18,04,21,10.70
2017,07,18,04,22,10.60
2017,07,18,04,23,10.60
2017,07,18,04,24,10.60
2017,07,18,04,25,10.60
2017,07,18,04,26,10.60
2017,07,18,04,27,10.60
2017,07,18,04,28,10.60
2017,07,18,04,29,10.60
2017,07,18,04,30,10.60
2017,07,18,04,31,10.60
2017,07,18,04,32,10.60
2017,07,18,04,33,10.50
2017,07,18,04,34,10.50
2017,07,18,04,35,10.50
2017,07,18,04,36,10.50
2017,07,18,04,37,10.50
2017,07,18,04,38,10.40
2017,07,18,04,39,10.40
2017,07,18,04,40,10.40
2017,07,18,04,41,10.40
2017,07,18,04,42,10.30
2017,07,18,04,43,10.30
2017,07,18,04,44,10.30
2017,07,18,04,45,10.30
2017,07,18,04,46,10.30
2017,07,18,04,47,10.30
2017,07,18,04,48,10.30
2017,07,18,04,49,10.30
2017,07,18,04,50,10.30
2017,07,18,04,51,10.20
2017,07,18,04,52,10.20
2017,07,18,04,53,10.20
2017,07,18,04,54,10.20
2017,07,18,04,55,10.20
2017,07,18,04,56,10.20
2017,07,18,04,57,10.20
2017,07,18,04,58,10.20
2017,07,18,04,59,10.10
2017,07,18,05,00,10.10
2017,07,18,05,01,10.10
2017,07,18,05,02,10.10
2017,07,18,05,03,10.10
2017,07,18,05,04,10.10
2017,07,18,05,05,10.10
2017,07,18,05,06,10.00
2017,07,18,05,07,10.00
2017,07,18,05,08,10.00
2017,07,18,05,09,10.00
2017,07,18,05,10,10.00
2017,07,18,05,11,10.00
2017,07,18,05,12,9.90
2017,07,18,05,13,9.90
2017,07,18,05,14,9.90
2017,07,18,05,15,9.90
2017,07,18,05,16,9.90
2017,07,18,05,17,9.90
2017,07,18,05,18,9.90
2017,07,18,05,19,9.80
2017,07,18,05,20,9.80
2017,07,18,05,21,9.80
2017,07,18,05,22,9.80
2017,07,18,05,23,9.80
2017,07,18,05,24,9.80
2017,07,18,05,25,9.80
2017,07,18,05,26,9.70
2017,07,18,05,27,9.70
2017,07,18,05,28,9.70
2017,07,18,05,29,9.70
2017,07,18,05,30,9.70
2017,07,18,05,31,9.70
2017,07,18,05,32,9.70
2017,07,18,05,33,9.70
2017,07,18,05,34,9.70
2017,07,18,05,35,9.70
2017,07,18,05,36,9.70
2017,07,18,05,37,9.70
2017,07,18,05,38,9.70
2017,07,18,05,39,9.70
2017,07,18,05,40,9.70
2017,07,18,05,41,9.70
2017,07,18,05,42,9.60
2017,07,18,05,43,9.60
2017,07,18,05,44,9.60
2017,07,18,05,45,9.60
2017,07,18,05,46,9.60
2017,07,18,05,47,9.60
2017,07,18,05,48,9.60
2017,07,18,05,49,9.60
2017,07,18,05,50,9.60
2017,07,18,05,51,9.60
2017,07,18,05,52,9.60
2017,07,18,05,53,9.60
2017,07,18,05,54,9.60
2017,07,18,05,55,9.60
2017,07,18,05,56,9.60
2017,07,18,05,57,9.60
2017,07,18,05,58,9.60
2017,07,18,05,59,9.60
2017,07,18,06,00,9.60
2017,07,18,06,01,9.60
2017,07,18,06,02,9.60
2017,07,18,06,03,9.60
2017,07,18,06,04,9.60
2017,07,18,06,05,9.60
2017,07,18,06,06,9.60
2017,07,18,06,07,9.60
2017,07,18,06,08,9.60
2017,07,18,06,09,9.60
2017,07,18,06,10,9.60
2017,07,18,06,11,9.60
2017,07,18,06,12,9.60
2017,07,18,06,13,9.60
2017,07,18,06,14,9.60
2017,07,18,06,15,9.60
2017,07,18,06,16,9.60
2017,07,18,06,17,9.60
2017,07,18,06,18,9.60
2017,07,18,06,19,9.60
2017,07,18,06,20,9.70
2017,07,18,06,21,9.70
2017,07,18,06,22,9.70
2017,07,18,06,23,9.70
2017,07,18,06,24,9.70
2017,07,18,06,25,9.70
2017,07,18,06,26,9.80
2017,07,18,06,27,9.80
2017,07,18,06,28,9.80
2017,07,18,06,29,9.80
2017,07,18,06,30,9.80
2017,07,18,06,31,9.80
2017,07,18,06,32,9.90
2017,07,18,06,33,9.90
2017,07,18,06,34,9.90
2017,07,18,06,35,10.00
2017,07,18,06,36,10.00
2017,07,18,06,37,10.00
2017,07,18,06,38,10.10
2017,07,18,06,39,10.10
2017,07,18,06,40,10.20
2017,07,18,06,41,10.20
2017,07,18,06,42,10.30
2017,07,18,06,43,10.30
2017,07,18,06,44,10.30
2017,07,18,06,45,10.40
2017,07,18,06,46,10.50
2017,07,18,06,47,10.50
2017,07,18,06,48,10.60
2017,07,18,06,49,10.60
2017,07,18,06,50,10.70
2017,07,18,06,51,10.70
2017,07,18,06,52,10.80
2017,07,18,06,53,10.90
2017,07,18,06,54,10.90
2017,07,18,06,55,11.00
2017,07,18,06,56,11.10
2017,07,18,06,57,11.10
2017,07,18,06,58,11.20
2017,07,18,06,59,11.30
2017,07,18,07,00,11.30
2017,07,18,07,01,11.40
2017,07,18,07,02,11.50
2017,07,18,07,03,11.50
2017,07,18,07,04,11.60
2017,07,18,07,05,11.70
2017,07,18,07,06,11.80
2017,07,18,07,07,11.90
2017,07,18,07,08,12.00
2017,07,18,07,09,12.10
2017,07,18,07,10,12.20
2017,07,18,07,11,12.30
2017,07,18,07,12,12.40
2017,07,18,07,13,12.50
2017,07,18,07,14,12.60
2017,07,18,07,15,12.70
2017,07,18,07,16,12.90
2017,07,18,07,17,13.10
2017,07,18,07,18,13.20
2017,07,18,07,19,13.40
2017,07,18,07,20,13.50
2017,07,18,07,21,13.60
2017,07,18,07,22,13.70
2017,07,18,07,23,13.80
2017,07,18,07,24,13.90
2017,07,18,07,25,14.00
2017,07,18,07,26,14.10
2017,07,18,07,27,14.20
2017,07,18,07,28,14.30
2017,07,18,07,29,14.30
2017,07,18,07,30,14.30
2017,07,18,07,31,14.40
2017,07,18,07,32,14.50
2017,07,18,07,33,14.50
2017,07,18,07,34,14.60
2017,07,18,07,35,14.60
2017,07,18,07,36,14.60
2017,07,18,07,37,14.70
2017,07,18,07,38,14.70
2017,07,18,07,39,14.80
2017,07,18,07,40,14.80
2017,07,18,07,41,14.90
2017,07,18,07,42,15.00
2017,07,18,07,43,15.10
2017,07,18,07,44,15.20
2017,07,18,07,45,15.20
2017,07,18,07,46,15.30
2017,07,18,07,47,15.40
2017,07,18,07,48,15.50
2017,07,18,07,49,15.50
2017,07,18,07,50,15.60
2017,07,18,07,51,15.60
2017,07,18,07,52,15.70
2017,07,18,07,53,15.70
2017,07,18,07,54,15.80
2017,07,18,07,55,15.80
2017,07,18,07,56,15.90
2017,07,18,07,57,16.00
2017,07,18,07,58,16.10
2017,07,18,07,59,16.10
2017,07,18,08,00,16.20
2017,07,18,08,01,16.20
2017,07,18,08,02,16.20
2017,07,18,08,03,16.20
2017,07,18,08,04,16.20
2017,07,18,08,05,16.20
2017,07,18,08,06,16.20
2017,07,18,08,07,16.30
2017,07,18,08,08,16.30
2017,07,18,08,09,16.30
2017,07,18,08,10,16.30
2017,07,18,08,11,16.30
2017,07,18,08,12,16.30
2017,07,18,08,13,16.20
2017,07,18,08,14,16.20
2017,07,18,08,15,16.20
2017,07,18,08,16,16.20
2017,07,18,08,17,16.20
2017,07,18,08,18,16.20
2017,07,18,08,19,16.30
2017,07,18,08,20,16.30
2017,07,18,08,21,16.40
2017,07,18,08,22,16.40
2017,07,18,08,23,16.50
2017,07,18,08,24,16.60
2017,07,18,08,25,16.70
2017,07,18,08,26,16.70
2017,07,18,08,27,16.80
2017,07,18,08,28,16.80
2017,07,18,08,29,16.80
2017,07,18,08,30,16.80
2017,07,18,08,31,16.80
2017,07,18,08,32,16.80
2017,07,18,08,33,16.80
2017,07,18,08,34,16.80
2017,07,18,08,35,16.80
2017,07,18,08,36,16.80
2017,07,18,08,37,16.80
2017,07,18,08,38,16.90
2017,07,18,08,39,16.90
2017,07,18,08,40,16.90
2017,07,18,08,41,16.90
2017,07,18,08,42,17.00
2017,07,18,08,43,17.00
2017,07,18,08,44,17.10
2017,07,18,08,45,17.10
2017,07,18,08,46,17.10
2017,07,18,08,47,17.10
2017,07,18,08,48,17.10
2017,07,18,08,49,17.20
2017,07,18,08,50,17.20
2017,07,18,08,51,17.20
2017,07,18,08,52,17.20
2017,07,18,08,53,17.30
2017,07,18,08,54,17.30
2017,07,18,08,55,17.30
2017,07,18,08,56,17.30
2017,07,18,08,57,17.30
2017,07,18,08,58,17.30
2017,07,18,08,59,17.40
2017,07,18,09,00,17.40
2017,07,18,09,01,17.40
2017,07,18,09,02,17.50
2017,07,18,09,03,17.50
2017,07,18,09,04,17.60
2017,07,18,09,05,17.60
2017,07,18,09,06,17.60
2017,07,18,09,07,17.70
2017,07,18,09,08,17.70
2017,07,18,09,09,17.70
2017,07,18,09,10,17.80
2017,07,18,09,11,17.80
2017,07,18,09,12,17.90
2017,07,18,09,13,18.00
2017,07,18,09,14,18.00
2017,07,18,09,15,18.00
2017,07,18,09,16,18.00
2017,07,18,09,17,18.10
2017,07,18,09,18,18.10
2017,07,18,09,19,18.10
2017,07,18,09,20,18.10
2017,07,18,09,21,18.10
2017,07,18,09,22,18.20
2017,07,18,09,23,18.20
2017,07,18,09,24,18.30
2017,07,18,09,25,18.30
2017,07,18,09,26,18.30
2017,07,18,09,27,18.40
2017,07,18,09,28,18.40
2017,07,18,09,29,18.40
2017,07,18,09,30,18.50
2017,07,18,09,31,18.50
2017,07,18,09,32,18.60
2017,07,18,09,33,18.70
2017,07,18,09,34,18.80
2017,07,18,09,35,18.80
2017,07,18,09,36,18.90
2017,07,18,09,37,18.90
2017,07,18,09,38,18.90
2017,07,18,09,39,18.90
2017,07,18,09,40,18.90
2017,07,18,09,41,18.90
2017,07,18,09,42,18.90
2017,07,18,09,43,19.00
2017,07,18,09,44,19.00
2017,07,18,09,45,19.10
2017,07,18,09,46,19.10
2017,07,18,09,47,19.10
2017,07,18,09,48,19.20
2017,07,18,09,49,19.30
2017,07,18,09,50,19.40
2017,07,18,09,51,19.50
2017,07,18,09,52,19.60
2017,07,18,09,53,19.70
2017,07,18,09,54,19.80
2017,07,18,09,55,19.80
2017,07,18,09,56,19.80
2017,07,18,09,57,19.80
2017,07,18,09,58,19.90
2017,07,18,09,59,19.90
2017,07,18,10,00,19.90
2017,07,18,10,01,20.00
2017,07,18,10,02,20.10
2017,07,18,10,03,20.10
2017,07,18,10,04,20.20
2017,07,18,10,05,20.30
2017,07,18,10,06,20.30
2017,07,18,10,07,20.30
2017,07,18,10,08,20.30
2017,07,18,10,09,20.30
2017,07,18,10,10,20.30
2017,07,18,10,11,20.40
2017,07,18,10,12,20.40
2017,07,18,10,13,20.40
2017,07,18,10,14,20.50
2017,07,18,10,15,20.50
2017,07,18,10,16,20.50
2017,07,18,10,17,20.60
2017,07,18,10,18,20.60
2017,07,18,10,19,20.60
2017,07,18,10,20,20.60
2017,07,18,10,21,20.60
2017,07,18,10,22,20.60
2017,07,18,10,23,20.60
2017,07,18,10,24,20.70
2017,07,18,10,25,20.80
2017,07,18,10,26,20.90
2017,07,18,10,27,21.00
2017,07,18,10,28,21.00
2017,07,18,10,29,21.10
2017,07,18,10,30,21.10
2017,07,18,10,31,21.10
2017,07,18,10,32,21.10
2017,07,18,10,33,21.10
2017,07,18,10,34,21.20
2017,07,18,10,35,21.20
2017,07,18,10,36,21.20
2017,07,18,10,37,21.30
2017,07,18,10,38,21.30
2017,07,18,10,39,21.30
2017,07,18,10,40,21.40
2017,07,18,10,41,21.40
2017,07,18,10,42,21.40
2017,07,18,10,43,21.50
2017,07,18,10,44,21.50
2017,07,18,10,45,21.60
2017,07,18,10,46,21.60
2017,07,18,10,47,21.60
2017,07,18,10,48,21.60
2017,07,18,10,49,21.70
2017,07,18,10,50,21.70
2017,07,18,10,51,21.70
2017,07,18,10,52,21.80
2017,07,18,10,53,21.80
2017,07,18,10,54,21.70
2017,07,18,10,55,21.70
2017,07,18,10,56,21.80
2017,07,18,10,57,21.80
2017,07,18,10,58,21.80
2017,07,18,10,59,21.80
2017,07,18,11,00,21.80
2017,07,18,11,01,21.80
2017,07,18,11,02,21.80
2017,07,18,11,03,21.90
2017,07,18,11,04,22.00
2017,07,18,11,05,22.00
2017,07,18,11,06,22.10
2017,07,18,11,07,22.10
2017,07,18,11,08,22.10
2017,07,18,11,09,22.10
2017,07,18,11,10,22.10
2017,07,18,11,11,22.10
2017,07,18,11,12,22.00
2017,07,18,11,13,21.90
2017,07,18,11,14,21.90
2017,07,18,11,15,21.80
2017,07,18,11,16,21.80
2017,07,18,11,17,21.80
2017,07,18,11,18,21.80
2017,07,18,11,19,21.80
2017,07,18,11,20,21.80
2017,07,18,11,21,21.70
2017,07,18,11,22,21.70
2017,07,18,11,23,21.70
2017,07,18,11,24,21.70
2017,07,18,11,25,21.70
2017,07,18,11,26,21.70
2017,07,18,11,27,21.70
2017,07,18,11,28,21.70
2017,07,18,11,29,21.80
2017,07,18,11,30,21.90
2017,07,18,11,31,21.90
2017,07,18,11,32,21.90
2017,07,18,11,33,22.00
2017,07,18,11,34,22.00
2017,07,18,11,35,22.00
2017,07,18,11,36,22.10
2017,07,18,11,37,22.10
2017,07,18,11,38,22.10
2017,07,18,11,39,22.10
2017,07,18,11,40,22.20
2017,07,18,11,41,22.20
2017,07,18,11,42,22.30
2017,07,18,11,43,22.30
2017,07,18,11,44,22.30
2017,07,18,11,45,22.30
2017,07,18,11,46,22.30
2017,07,18,11,47,22.20
2017,07,18,11,48,22.10
2017,07,18,11,49,22.10
2017,07,18,11,50,22.10
2017,07,18,11,51,22.10
2017,07,18,11,52,22.10
2017,07,18,11,53,22.10
2017,07,18,11,54,22.20
2017,07,18,11,55,22.20
2017,07,18,11,56,22.10
2017,07,18,11,57,22.10
2017,07,18,11,58,22.00
2017,07,18,11,59,22.00
2017,07,18,12,00,21.90
2017,07,18,12,01,21.90
2017,07,18,12,02,21.90
2017,07,18,12,03,21.80
2017,07,18,12,04,21.80
2017,07,18,12,05,21.80
2017,07,18,12,06,21.80
2017,07,18,12,07,21.80
2017,07,18,12,08,21.80
2017,07,18,12,09,21.80
2017,07,18,12,10,21.80
2017,07,18,12,11,21.90
2017,07,18,12,12,21.80
2017,07,18,12,13,21.80
2017,07,18,12,14,21.80
2017,07,18,12,15,21.80
2017,07,18,12,16,21.80
2017,07,18,12,17,21.80
2017,07,18,12,18,21.80
2017,07,18,12,19,21.90
2017,07,18,12,20,22.00
2017,07,18,12,21,22.10
2017,07,18,12,22,22.20
2017,07,18,12,23,22.30
2017,07,18,12,24,22.40
2017,07,18,12,25,22.50
2017,07,18,12,26,22.60
2017,07,18,12,27,22.60
2017,07,18,12,28,22.60
2017,07,18,12,29,22.60
2017,07,18,12,30,22.50
2017,07,18,12,31,22.40
2017,07,18,12,32,22.30
2017,07,18,12,33,22.30
2017,07,18,12,34,22.20
2017,07,18,12,35,22.20
2017,07,18,12,36,22.20
2017,07,18,12,37,22.20
2017,07,18,12,38,22.20
2017,07,18,12,39,22.10
2017,07,18,12,40,22.10
2017,07,18,12,41,22.10
2017,07,18,12,42,22.20
2017,07,18,12,43,22.20
2017,07,18,12,44,22.30
2017,07,18,12,45,22.40
2017,07,18,12,46,22.50
2017,07,18,12,47,22.60
2017,07,18,12,48,22.60
2017,07,18,12,49,22.60
2017,07,18,12,50,22.70
2017,07,18,12,51,22.80
2017,07,18,12,52,22.80
2017,07,18,12,53,22.80
2017,07,18,12,54,22.80
2017,07,18,12,55,22.70
2017,07,18,12,56,22.70
2017,07,18,12,57,22.70
2017,07,18,12,58,22.80
2017,07,18,12,59,22.80
2017,07,18,13,00,22.70
2017,07,18,13,01,22.70
2017,07,18,13,02,22.70
2017,07,18,13,03,22.70
2017,07,18,13,04,22.70
2017,07,18,13,05,22.70
2017,07,18,13,06,22.70
2017,07,18,13,07,22.70
2017,07,18,13,08,22.70
2017,07,18,13,09,22.70
2017,07,18,13,10,22.80
2017,07,18,13,11,22.80
2017,07,18,13,12,22.90
2017,07,18,13,13,22.90
2017,07,18,13,14,23.00
2017,07,18,13,15,23.00
2017,07,18,13,16,23.10
2017,07,18,13,17,23.20
2017,07,18,13,18,23.20
2017,07,18,13,19,23.30
2017,07,18,13,20,23.30
2017,07,18,13,21,23.30
2017,07,18,13,22,23.40
2017,07,18,13,23,23.40
2017,07,18,13,24,23.40
2017,07,18,13,25,23.40
2017,07,18,13,26,23.40
2017,07,18,13,27,23.30
2017,07,18,13,28,23.30
2017,07,18,13,29,23.30
2017,07,18,13,30,23.30
2017,07,18,13,31,23.30
2017,07,18,13,32,23.20
2017,07,18,13,33,23.20
2017,07,18,13,34,23.10
2017,07,18,13,35,23.10
2017,07,18,13,36,23.10
2017,07,18,13,37,23.10
2017,07,18,13,38,23.20
2017,07,18,13,39,23.20
2017,07,18,13,40,23.20
2017,07,18,13,41,23.30
2017,07,18,13,42,23.30
2017,07,18,13,43,23.40
2017,07,18,13,44,23.40
2017,07,18,13,45,23.50
2017,07,18,13,46,23.50
2017,07,18,13,47,23.60
2017,07,18,13,48,23.60
2017,07,18,13,49,23.70
2017,07,18,13,50,23.80
2017,07,18,13,51,23.80
2017,07,18,13,52,23.80
2017,07,18,13,53,23.80
2017,07,18,13,54,23.90
2017,07,18,13,55,24.00
2017,07,18,13,56,24.10
2017,07,18,13,57,24.20
2017,07,18,13,58,24.20
2017,07,18,13,59,24.30
2017,07,18,14,00,24.30
2017,07,18,14,01,24.40
2017,07,18,14,02,24.40
2017,07,18,14,03,24.50
2017,07,18,14,04,24.50
2017,07,18,14,05,24.60
2017,07,18,14,06,24.60
2017,07,18,14,07,24.70
2017,07,18,14,08,24.70
2017,07,18,14,09,24.80
2017,07,18,14,10,24.90
2017,07,18,14,11,24.90
2017,07,18,14,12,25.00
2017,07,18,14,13,25.00
2017,07,18,14,14,25.10
2017,07,18,14,15,25.10
2017,07,18,14,16,25.00
2017,07,18,14,17,25.10
2017,07,18,14,18,25.10
2017,07,18,14,19,25.10
2017,07,18,14,20,25.10
2017,07,18,14,21,25.00
2017,07,18,14,22,25.00
2017,07,18,14,23,25.00
2017,07,18,14,24,24.90
2017,07,18,14,25,24.90
2017,07,18,14,26,24.90
2017,07,18,14,27,24.90
2017,07,18,14,28,25.00
2017,07,18,14,29,25.00
2017,07,18,14,30,25.10
2017,07,18,14,31,25.10
2017,07,18,14,32,25.10
2017,07,18,14,33,25.10
2017,07,18,14,34,25.10
2017,07,18,14,35,25.10
2017,07,18,14,36,25.10
2017,07,18,14,37,25.20
2017,07,18,14,38,25.20
2017,07,18,14,39,25.30
2017,07,18,14,40,25.30
2017,07,18,14,41,25.40
2017,07,18,14,42,25.40
2017,07,18,14,43,25.40
2017,07,18,14,44,25.40
2017,07,18,14,45,25.40
2017,07,18,14,46,25.40
2017,07,18,14,47,25.40
2017,07,18,14,48,25.40
2017,07,18,14,49,25.40
2017,07,18,14,50,25.40
2017,07,18,14,51,25.40
2017,07,18,14,52,25.40
2017,07,18,14,53,25.40
2017,07,18,14,54,25.40
2017,07,18,14,55,25.40
2017,07,18,14,56,25.40
2017,07,18,14,57,25.40
2017,07,18,14,58,25.50
2017,07,18,14,59,25.60
2017,07,18,15,00,25.60
2017,07,18,15,01,25.60
2017,07,18,15,02,25.50
2017,07,18,15,03,25.50
2017,07,18,15,04,25.50
2017,07,18,15,05,25.60
2017,07,18,15,06,25.60
2017,07,18,15,07,25.50
2017,07,18,15,08,25.50
2017,07,18,15,09,25.40
2017,07,18,15,10,25.30
2017,07,18,15,11,25.30
2017,07,18,15,12,25.30
2017,07,18,15,13,25.30
2017,07,18,15,14,25.30
2017,07,18,15,15,25.30
2017,07,18,15,16,25.30
2017,07,18,15,17,25.20
2017,07,18,15,18,25.20
2017,07,18,15,19,25.20
2017,07,18,15,20,25.20
2017,07,18,15,21,25.10
2017,07,18,15,22,25.20
2017,07,18,15,23,25.20
2017,07,18,15,24,25.30
2017,07,18,15,25,25.30
2017,07,18,15,26,25.40
2017,07,18,15,27,25.50
2017,07,18,15,28,25.50
2017,07,18,15,29,25.50
2017,07,18,15,30,25.60
2017,07,18,15,31,25.70
2017,07,18,15,32,25.70
2017,07,18,15,33,25.70
2017,07,18,15,34,25.70
2017,07,18,15,35,25.80
2017,07,18,15,36,25.80
2017,07,18,15,37,25.80
2017,07,18,15,38,25.80
2017,07,18,15,39,25.80
2017,07,18,15,40,25.80
2017,07,18,15,41,25.90
2017,07,18,15,42,25.90
2017,07,18,15,43,25.90
2017,07,18,15,44,26.00
2017,07,18,15,45,26.00
2017,07,18,15,46,26.00
2017,07,18,15,47,25.90
2017,07,18,15,48,25.90
2017,07,18,15,49,25.80
2017,07,18,15,50,25.70
2017,07,18,15,51,25.70
2017,07,18,15,52,25.70
2017,07,18,15,53,25.70
2017,07,18,15,54,25.70
2017,07,18,15,55,25.70
2017,07,18,15,56,25.70
2017,07,18,15,57,25.70
2017,07,18,15,58,25.80
2017,07,18,15,59,25.80
2017,07,18,16,00,25.80
2017,07,18,16,01,25.80
2017,07,18,16,02,25.80
2017,07,18,16,03,25.80
2017,07,18,16,04,25.90
2017,07,18,16,05,25.90
2017,07,18,16,06,26.00
2017,07,18,16,07,26.10
2017,07,18,16,08,26.20
2017,07,18,16,09,26.30
2017,07,18,16,10,26.30
2017,07,18,16,11,26.30
2017,07,18,16,12,26.30
2017,07,18,16,13,26.30
2017,07,18,16,14,26.30
2017,07,18,16,15,26.20
2017,07,18,16,16,26.20
2017,07,18,16,17,26.20
2017,07,18,16,18,26.20
2017,07,18,16,19,26.20
2017,07,18,16,20,26.30
2017,07,18,16,21,26.30
2017,07,18,16,22,26.40
2017,07,18,16,23,26.50
2017,07,18,16,24,26.50
2017,07,18,16,25,26.50
2017,07,18,16,26,26.50
2017,07,18,16,27,26.50
2017,07,18,16,28,26.40
2017,07,18,16,29,26.40
2017,07,18,16,30,26.30
2017,07,18,16,31,26.30
2017,07,18,16,32,26.30
2017,07,18,16,33,26.40
2017,07,18,16,34,26.40
2017,07,18,16,35,26.30
2017,07,18,16,36,26.30
2017,07,18,16,37,26.20
2017,07,18,16,38,26.20
2017,07,18,16,39,26.10
2017,07,18,16,40,26.00
2017,07,18,16,41,26.00
2017,07,18,16,42,25.90
2017,07,18,16,43,25.90
2017,07,18,16,44,25.80
2017,07,18,16,45,25.80
2017,07,18,16,46,25.80
2017,07,18,16,47,25.80
2017,07,18,16,48,25.80
2017,07,18,16,49,25.80
2017,07,18,16,50,25.90
2017,07,18,16,51,25.90
2017,07,18,16,52,25.80
2017,07,18,16,53,25.80
2017,07,18,16,54,25.80
2017,07,18,16,55,25.70
2017,07,18,16,56,25.70
2017,07,18,16,57,25.70
2017,07,18,16,58,25.70
2017,07,18,16,59,25.70
2017,07,18,17,00,25.70
2017,07,18,17,01,25.70
2017,07,18,17,02,25.70
2017,07,18,17,03,25.70
2017,07,18,17,04,25.70
2017,07,18,17,05,25.70
2017,07,18,17,06,25.70
2017,07,18,17,07,25.70
2017,07,18,17,08,25.60
2017,07,18,17,09,25.50
2017,07,18,17,10,25.50
2017,07,18,17,11,25.50
2017,07,18,17,12,25.50
2017,07,18,17,13,25.60
2017,07,18,17,14,25.70
2017,07,18,17,15,25.70
2017,07,18,17,16,25.80
2017,07,18,17,17,25.80
2017,07,18,17,18,25.80
2017,07,18,17,19,25.80
2017,07,18,17,20,25.80
2017,07,18,17,21,25.70
2017,07,18,17,22,25.70
2017,07,18,17,23,25.70